CUL136 YSNF-NSFA

Flight info

Callsign CUL136
Flight time 4h 12m
Altitude 27000
Route NF B450 DODUX
Aircraft C130/M-SDE2E3FGRY/H

Departure

Time 2026-05-05 00:00
Airport Norfolk Island International Airport (YSNF)

Arrival

Time 2026-05-05 04:13
Airport Faleolo International Airport (NSFA)
Time Latitude Longitude Altitude Speed Heading
2026-05-04 23:47 -29.03579 167.94364 371 ft 0 kts 315°
2026-05-04 23:50 -29.03578 167.94364 371 ft 0 kts 313°
2026-05-04 23:51 -29.03578 167.94363 371 ft 0 kts 307°
2026-05-04 23:51 -29.03578 167.94361 371 ft 0 kts 288°
2026-05-04 23:51 -29.03579 167.94357 371 ft 1 kts 242°
2026-05-04 23:51 -29.03586 167.94356 371 ft 2 kts 168°
2026-05-04 23:52 -29.03618 167.94362 371 ft 6 kts 175°
2026-05-04 23:52 -29.03654 167.94364 372 ft 4 kts 180°
2026-05-04 23:52 -29.03692 167.94358 372 ft 9 kts 191°
2026-05-04 23:52 -29.03769 167.94340 371 ft 11 kts 190°
2026-05-04 23:53 -29.03846 167.94325 370 ft 11 kts 189°
2026-05-04 23:53 -29.03923 167.94303 368 ft 12 kts 209°
2026-05-04 23:53 -29.03977 167.94238 366 ft 11 kts 229°
2026-05-04 23:53 -29.04025 167.94174 367 ft 11 kts 230°
2026-05-04 23:54 -29.04074 167.94108 363 ft 12 kts 230°
2026-05-04 23:54 -29.04119 167.94047 359 ft 4 kts 229°
2026-05-04 23:54 -29.04142 167.94015 361 ft 6 kts 230°
2026-05-04 23:54 -29.04167 167.93974 362 ft 8 kts 245°
2026-05-04 23:55 -29.04142 167.93869 355 ft 24 kts 298°
2026-05-04 23:55 -29.04081 167.93743 355 ft 10 kts 292°
2026-05-04 23:55 -29.04028 167.93654 354 ft 0 kts 305°
2026-05-04 23:56 -29.03966 167.93555 352 ft 19 kts 304°
2026-05-04 23:56 -29.03894 167.93430 344 ft 17 kts 302°
2026-05-04 23:56 -29.03823 167.93301 337 ft 16 kts 304°
2026-05-04 23:56 -29.03818 167.93293 337 ft 3 kts 302°
2026-05-04 23:57 -29.03789 167.93242 335 ft 12 kts 302°
2026-05-04 23:57 -29.03734 167.93145 332 ft 17 kts 302°
2026-05-04 23:57 -29.03679 167.93040 327 ft 2 kts 298°
2026-05-04 23:57 -29.03657 167.92992 329 ft 9 kts 292°
2026-05-04 23:58 -29.03653 167.92966 330 ft 5 kts 280°
2026-05-04 23:58 -29.03642 167.92947 328 ft 0 kts 350°
2026-05-04 23:58 -29.03638 167.92949 325 ft 0 kts 34°
2026-05-04 23:58 -29.03636 167.92954 325 ft 2 kts 77°
2026-05-04 23:59 -29.03646 167.92981 327 ft 6 kts 135°
2026-05-04 23:59 -29.03677 167.93036 328 ft 15 kts 122°
2026-05-04 23:59 -29.03789 167.93277 336 ft 66 kts 113°
2026-05-04 23:59 -29.03958 167.93724 352 ft 83 kts 120°
2026-05-05 00:00 -29.04473 167.94440 572 ft 144 kts 119°
2026-05-05 00:00 -29.04686 167.94758 723 ft 153 kts 118°
2026-05-05 00:00 -29.05885 167.96670 1679 ft 204 kts 121°
2026-05-05 00:00 -29.06760 167.98027 2412 ft 215 kts 123°
2026-05-05 00:01 -29.07572 167.99450 3370 ft 209 kts 114°
2026-05-05 00:01 -29.08255 168.00897 4469 ft 205 kts 111°
2026-05-05 00:01 -29.08536 168.02455 5454 ft 199 kts 81°
2026-05-05 00:01 -29.08073 168.03937 6422 ft 200 kts 60°
2026-05-05 00:02 -29.07343 168.05311 7317 ft 204 kts 57°
2026-05-05 00:02 -29.06565 168.06693 8234 ft 210 kts 57°
2026-05-05 00:02 -29.05751 168.08131 9017 ft 221 kts 57°
2026-05-05 00:02 -29.04911 168.09617 9925 ft 224 kts 57°
2026-05-05 00:03 -29.04051 168.11133 10698 ft 231 kts 57°
2026-05-05 00:03 -29.03164 168.12696 11448 ft 237 kts 57°
2026-05-05 00:03 -29.02257 168.14289 12196 ft 242 kts 56°
2026-05-05 00:03 -29.01328 168.15920 12930 ft 248 kts 56°
2026-05-05 00:04 -29.00382 168.17581 13655 ft 252 kts 56°
2026-05-05 00:04 -28.99418 168.19273 14338 ft 257 kts 56°
2026-05-05 00:04 -28.98427 168.21009 14867 ft 265 kts 57°
2026-05-05 00:04 -28.97416 168.22783 15484 ft 268 kts 57°
2026-05-05 00:05 -28.96379 168.24602 15949 ft 278 kts 57°
2026-05-05 00:05 -28.95329 168.26444 16630 ft 277 kts 57°
2026-05-05 00:05 -28.94256 168.28324 17085 ft 285 kts 57°
2026-05-05 00:05 -28.93171 168.30224 17693 ft 287 kts 58°
2026-05-05 00:06 -28.92067 168.32155 18178 ft 291 kts 57°
2026-05-05 00:06 -28.90955 168.34099 18687 ft 295 kts 58°
2026-05-05 00:06 -28.89827 168.36070 19110 ft 298 kts 58°
2026-05-05 00:06 -28.88691 168.38053 19565 ft 300 kts 58°
2026-05-05 00:07 -28.87544 168.40055 19987 ft 303 kts 58°
2026-05-05 00:07 -28.86387 168.42074 20403 ft 305 kts 58°
2026-05-05 00:07 -28.85220 168.44110 20807 ft 308 kts 58°
2026-05-05 00:07 -28.84041 168.46165 21193 ft 311 kts 58°
2026-05-05 00:08 -28.82851 168.48238 21562 ft 314 kts 58°
2026-05-05 00:08 -28.81663 168.50307 21922 ft 317 kts 58°
2026-05-05 00:08 -28.80451 168.52418 22275 ft 320 kts 58°
2026-05-05 00:08 -28.79228 168.54546 22626 ft 322 kts 58°
2026-05-05 00:09 -28.77991 168.56696 22966 ft 325 kts 58°
2026-05-05 00:09 -28.76746 168.58859 23284 ft 328 kts 58°
2026-05-05 00:09 -28.75492 168.61037 23613 ft 329 kts 58°
2026-05-05 00:09 -28.74233 168.63223 23887 ft 331 kts 58°
2026-05-05 00:10 -28.72963 168.65428 24135 ft 334 kts 58°
2026-05-05 00:10 -28.71684 168.67644 24371 ft 336 kts 58°
2026-05-05 00:10 -28.70396 168.69876 24624 ft 338 kts 58°
2026-05-05 00:10 -28.69095 168.72130 24807 ft 342 kts 58°
2026-05-05 00:11 -28.67782 168.74404 25026 ft 344 kts 58°
2026-05-05 00:11 -28.66486 168.76634 25244 ft 346 kts 58°
2026-05-05 00:11 -28.65155 168.78929 25455 ft 348 kts 58°
2026-05-05 00:11 -28.63818 168.81236 25664 ft 350 kts 58°
2026-05-05 00:12 -28.62476 168.83555 25864 ft 352 kts 58°
2026-05-05 00:12 -28.61127 168.85884 26061 ft 353 kts 58°
2026-05-05 00:12 -28.59772 168.88225 26253 ft 355 kts 58°
2026-05-05 00:12 -28.58408 168.90578 26435 ft 357 kts 58°
2026-05-05 00:13 -28.57039 168.92938 26615 ft 358 kts 58°
2026-05-05 00:13 -28.55661 168.95314 26782 ft 360 kts 58°
2026-05-05 00:13 -28.54279 168.97695 26953 ft 362 kts 58°
2026-05-05 00:13 -28.52891 169.00086 27118 ft 363 kts 58°
2026-05-05 00:14 -28.51493 169.02490 27203 ft 367 kts 58°
2026-05-05 00:14 -28.50074 169.04931 27211 ft 372 kts 58°
2026-05-05 00:14 -28.48636 169.07402 27217 ft 377 kts 58°
2026-05-05 00:14 -28.47181 169.09902 27214 ft 381 kts 58°
2026-05-05 00:15 -28.45730 169.12392 27212 ft 385 kts 58°
2026-05-05 00:15 -28.44246 169.14936 27213 ft 387 kts 58°
2026-05-05 00:15 -28.42756 169.17492 27213 ft 390 kts 58°
2026-05-05 00:15 -28.41254 169.20065 27213 ft 392 kts 58°
2026-05-05 00:16 -28.39746 169.22646 27214 ft 393 kts 58°
2026-05-05 00:16 -28.38227 169.25245 27212 ft 395 kts 58°
2026-05-05 00:16 -28.36707 169.27844 27212 ft 396 kts 58°
2026-05-05 00:16 -28.35184 169.30447 27212 ft 396 kts 58°
2026-05-05 00:17 -28.33657 169.33055 27213 ft 397 kts 58°
2026-05-05 00:17 -28.32126 169.35668 27211 ft 398 kts 58°
2026-05-05 00:17 -28.30593 169.38283 27212 ft 398 kts 58°
2026-05-05 00:17 -28.29058 169.40899 27212 ft 398 kts 58°
2026-05-05 00:18 -28.27522 169.43516 27232 ft 399 kts 58°
2026-05-05 00:18 -28.25986 169.46130 27218 ft 399 kts 58°
2026-05-05 00:18 -28.24445 169.48752 27206 ft 399 kts 58°
2026-05-05 00:18 -28.22927 169.51333 27212 ft 399 kts 58°
2026-05-05 00:19 -28.21385 169.53954 27214 ft 399 kts 58°
2026-05-05 00:19 -28.19843 169.56573 27211 ft 399 kts 58°
2026-05-05 00:19 -28.18300 169.59190 27214 ft 399 kts 58°
2026-05-05 00:19 -28.16756 169.61809 27214 ft 399 kts 58°
2026-05-05 00:20 -28.15216 169.64420 27206 ft 399 kts 58°
2026-05-05 00:20 -28.13669 169.67041 27206 ft 399 kts 58°
2026-05-05 00:20 -28.12126 169.69653 27206 ft 399 kts 58°
2026-05-05 00:20 -28.10578 169.72272 27206 ft 399 kts 58°
2026-05-05 00:21 -28.09032 169.74886 27206 ft 399 kts 58°
2026-05-05 00:21 -28.07485 169.77499 27206 ft 399 kts 58°
2026-05-05 00:21 -28.05939 169.80111 27219 ft 399 kts 58°
2026-05-05 00:21 -28.04391 169.82722 27206 ft 399 kts 58°
2026-05-05 00:22 -28.02844 169.85332 27201 ft 399 kts 58°
2026-05-05 00:22 -28.01297 169.87939 27206 ft 399 kts 58°
2026-05-05 00:22 -27.99754 169.90539 27206 ft 398 kts 58°
2026-05-05 00:22 -27.98209 169.93140 27202 ft 398 kts 58°
2026-05-05 00:23 -27.96665 169.95736 27206 ft 398 kts 58°
2026-05-05 00:23 -27.95120 169.98334 27206 ft 398 kts 58°
2026-05-05 00:23 -27.93575 170.00930 27203 ft 398 kts 58°
2026-05-05 00:23 -27.92026 170.03531 27203 ft 398 kts 58°
2026-05-05 00:24 -27.90481 170.06124 27203 ft 398 kts 58°
2026-05-05 00:24 -27.88933 170.08722 27201 ft 398 kts 57°
2026-05-05 00:24 -27.87406 170.11281 27200 ft 398 kts 57°
2026-05-05 00:24 -27.85855 170.13880 27201 ft 398 kts 57°
2026-05-05 00:25 -27.84306 170.16473 27200 ft 398 kts 57°
2026-05-05 00:25 -27.82756 170.19066 27206 ft 398 kts 58°
2026-05-05 00:25 -27.81205 170.21660 27199 ft 398 kts 58°
2026-05-05 00:25 -27.79656 170.24247 27200 ft 398 kts 58°
2026-05-05 00:26 -27.78107 170.26836 27201 ft 398 kts 58°
2026-05-05 00:26 -27.76556 170.29424 27201 ft 398 kts 58°
2026-05-05 00:26 -27.75006 170.32010 27204 ft 397 kts 58°
2026-05-05 00:26 -27.73456 170.34594 27205 ft 397 kts 58°
2026-05-05 00:27 -27.71907 170.37176 27188 ft 397 kts 57°
2026-05-05 00:27 -27.70357 170.39756 27198 ft 397 kts 57°
2026-05-05 00:27 -27.68806 170.42337 27199 ft 397 kts 57°
2026-05-05 00:27 -27.67256 170.44915 27198 ft 397 kts 57°
2026-05-05 00:28 -27.65702 170.47498 27201 ft 398 kts 57°
2026-05-05 00:28 -27.64150 170.50076 27201 ft 398 kts 57°
2026-05-05 00:28 -27.62597 170.52656 27201 ft 398 kts 57°
2026-05-05 00:28 -27.61039 170.55239 27211 ft 398 kts 58°
2026-05-05 00:29 -27.59481 170.57823 27201 ft 398 kts 58°
2026-05-05 00:29 -27.57926 170.60400 27200 ft 398 kts 58°
2026-05-05 00:29 -27.56368 170.62981 27203 ft 398 kts 58°
2026-05-05 00:29 -27.54811 170.65558 27203 ft 398 kts 58°
2026-05-05 00:30 -27.53252 170.68138 27201 ft 398 kts 58°
2026-05-05 00:30 -27.52220 170.69843 27203 ft 398 kts 58°
2026-05-05 00:30 -27.50136 170.73288 27200 ft 398 kts 58°
2026-05-05 00:30 -27.48576 170.75864 27201 ft 398 kts 58°
2026-05-05 00:31 -27.47543 170.77568 27203 ft 398 kts 58°
2026-05-05 00:31 -27.45985 170.80139 27201 ft 398 kts 58°
2026-05-05 00:31 -27.43918 170.83545 27200 ft 398 kts 58°
2026-05-05 00:31 -27.42357 170.86118 27201 ft 398 kts 58°
2026-05-05 00:32 -27.40794 170.88691 27199 ft 398 kts 58°
2026-05-05 00:32 -27.39232 170.91261 27218 ft 398 kts 58°
2026-05-05 00:32 -27.38177 170.92998 27207 ft 398 kts 58°
2026-05-05 00:32 -27.36613 170.95568 27197 ft 398 kts 58°
2026-05-05 00:33 -27.35048 170.98138 27196 ft 398 kts 58°
2026-05-05 00:33 -27.33483 171.00707 27198 ft 398 kts 58°
2026-05-05 00:33 -27.31918 171.03276 27201 ft 398 kts 58°
2026-05-05 00:33 -27.30376 171.05805 27192 ft 398 kts 58°
2026-05-05 00:34 -27.28810 171.08371 27195 ft 398 kts 58°
2026-05-05 00:34 -27.27246 171.10933 27195 ft 398 kts 58°
2026-05-05 00:34 -27.25679 171.13499 27191 ft 398 kts 58°
2026-05-05 00:34 -27.24114 171.16059 27197 ft 398 kts 58°
2026-05-05 00:35 -27.22551 171.18616 27193 ft 398 kts 58°
2026-05-05 00:35 -27.20983 171.21179 27196 ft 398 kts 58°
2026-05-05 00:35 -27.19417 171.23737 27184 ft 398 kts 58°
2026-05-05 00:35 -27.17850 171.26295 27193 ft 398 kts 58°
2026-05-05 00:36 -27.16279 171.28857 27202 ft 398 kts 58°
2026-05-05 00:36 -27.14711 171.31415 27194 ft 398 kts 58°
2026-05-05 00:36 -27.13139 171.33976 27187 ft 398 kts 58°
2026-05-05 00:36 -27.11570 171.36532 27189 ft 397 kts 58°
2026-05-05 00:37 -27.10000 171.39087 27189 ft 397 kts 58°
2026-05-05 00:37 -27.08431 171.41639 27189 ft 397 kts 58°
2026-05-05 00:37 -27.06862 171.44190 27188 ft 397 kts 58°
2026-05-05 00:37 -27.05294 171.46738 27192 ft 397 kts 58°
2026-05-05 00:38 -27.03723 171.49290 27196 ft 397 kts 58°
2026-05-05 00:38 -27.02153 171.51837 27190 ft 397 kts 58°
2026-05-05 00:38 -27.00603 171.54351 27195 ft 397 kts 58°
2026-05-05 00:38 -26.99029 171.56904 27191 ft 397 kts 58°
2026-05-05 00:39 -26.97457 171.59451 27184 ft 397 kts 58°
2026-05-05 00:39 -26.95883 171.61999 27187 ft 397 kts 58°
2026-05-05 00:39 -26.94309 171.64546 27183 ft 397 kts 58°
2026-05-05 00:39 -26.92737 171.67088 27197 ft 397 kts 58°
2026-05-05 00:40 -26.91165 171.69628 27183 ft 396 kts 58°
2026-05-05 00:40 -26.89597 171.72164 27189 ft 396 kts 58°
2026-05-05 00:40 -26.88029 171.74695 27184 ft 396 kts 58°
2026-05-05 00:40 -26.86459 171.77229 27180 ft 396 kts 58°
2026-05-05 00:41 -26.84889 171.79762 27175 ft 396 kts 58°
2026-05-05 00:41 -26.83319 171.82292 27180 ft 395 kts 58°
2026-05-05 00:41 -26.81751 171.84818 27183 ft 395 kts 58°
2026-05-05 00:41 -26.80181 171.87346 27184 ft 395 kts 58°
2026-05-05 00:42 -26.78611 171.89873 27184 ft 395 kts 58°
2026-05-05 00:42 -26.77038 171.92402 27183 ft 395 kts 58°
2026-05-05 00:42 -26.75466 171.94930 27182 ft 395 kts 58°
2026-05-05 00:42 -26.73895 171.97453 27181 ft 395 kts 58°
2026-05-05 00:43 -26.72343 171.99946 27178 ft 395 kts 58°
2026-05-05 00:43 -26.70771 172.02467 27181 ft 395 kts 58°
2026-05-05 00:43 -26.69197 172.04991 27189 ft 395 kts 57°
2026-05-05 00:43 -26.67629 172.07504 27179 ft 394 kts 57°
2026-05-05 00:44 -26.66062 172.10015 27179 ft 393 kts 57°
2026-05-05 00:44 -26.64499 172.12518 27162 ft 393 kts 57°
2026-05-05 00:44 -26.62936 172.15019 27172 ft 392 kts 57°
2026-05-05 00:44 -26.61373 172.17519 27180 ft 392 kts 57°
2026-05-05 00:45 -26.59809 172.20019 27174 ft 392 kts 57°
2026-05-05 00:45 -26.58244 172.22520 27178 ft 392 kts 57°
2026-05-05 00:45 -26.56677 172.25021 27177 ft 393 kts 57°
2026-05-05 00:45 -26.55110 172.27522 27176 ft 393 kts 57°
2026-05-05 00:46 -26.53561 172.29992 27165 ft 393 kts 57°
2026-05-05 00:46 -26.51996 172.32486 27174 ft 392 kts 57°
2026-05-05 00:46 -26.50430 172.34981 27174 ft 392 kts 57°
2026-05-05 00:46 -26.48864 172.37475 27170 ft 393 kts 57°
2026-05-05 00:47 -26.47293 172.39975 27172 ft 393 kts 57°
2026-05-05 00:47 -26.45725 172.42469 27192 ft 392 kts 57°
2026-05-05 00:47 -26.44156 172.44963 27175 ft 392 kts 57°
2026-05-05 00:47 -26.42593 172.47445 27169 ft 391 kts 57°
2026-05-05 00:48 -26.41030 172.49928 27172 ft 391 kts 57°
2026-05-05 00:48 -26.39468 172.52406 27170 ft 390 kts 57°
2026-05-05 00:48 -26.37906 172.54884 27171 ft 390 kts 57°
2026-05-05 00:48 -26.36350 172.57352 27161 ft 390 kts 57°
2026-05-05 00:49 -26.34794 172.59816 27168 ft 390 kts 57°
2026-05-05 00:49 -26.33254 172.62256 27171 ft 390 kts 57°
2026-05-05 00:49 -26.31692 172.64727 27167 ft 390 kts 57°
2026-05-05 00:49 -26.30128 172.67202 27168 ft 390 kts 57°
2026-05-05 00:50 -26.28564 172.69674 27163 ft 390 kts 57°
2026-05-05 00:50 -26.27003 172.72141 27170 ft 390 kts 57°
2026-05-05 00:50 -26.25437 172.74615 27168 ft 390 kts 57°
2026-05-05 00:50 -26.23872 172.77084 27165 ft 390 kts 57°
2026-05-05 00:51 -26.22305 172.79556 27167 ft 390 kts 57°
2026-05-05 00:51 -26.20737 172.82028 27165 ft 391 kts 57°
2026-05-05 00:51 -26.19172 172.84495 27165 ft 391 kts 57°
2026-05-05 00:51 -26.17604 172.86964 27167 ft 391 kts 57°
2026-05-05 00:52 -26.16036 172.89433 27163 ft 391 kts 57°
2026-05-05 00:52 -26.14465 172.91904 27165 ft 391 kts 57°
2026-05-05 00:52 -26.12895 172.94373 27166 ft 391 kts 57°
2026-05-05 00:52 -26.11326 172.96839 27165 ft 391 kts 57°
2026-05-05 00:53 -26.09756 172.99305 27168 ft 391 kts 57°
2026-05-05 00:53 -26.08185 173.01772 27149 ft 391 kts 57°
2026-05-05 00:53 -26.06612 173.04240 27153 ft 391 kts 57°
2026-05-05 00:53 -26.05036 173.06711 27159 ft 392 kts 57°
2026-05-05 00:54 -26.03460 173.09181 27152 ft 392 kts 57°
2026-05-05 00:54 -26.01881 173.11655 27156 ft 392 kts 57°
2026-05-05 00:54 -26.00322 173.14096 27159 ft 393 kts 57°
2026-05-05 00:54 -25.98741 173.16569 27179 ft 393 kts 57°
2026-05-05 00:55 -25.97158 173.19045 27161 ft 392 kts 57°
2026-05-05 00:55 -25.95578 173.21514 27155 ft 392 kts 57°
2026-05-05 00:55 -25.94003 173.23976 27158 ft 391 kts 57°
2026-05-05 00:55 -25.92423 173.26443 27157 ft 391 kts 57°
2026-05-05 00:56 -25.90849 173.28900 27156 ft 390 kts 57°
2026-05-05 00:56 -25.89272 173.31360 27153 ft 390 kts 57°
2026-05-05 00:56 -25.87698 173.33814 27156 ft 390 kts 57°
2026-05-05 00:56 -25.86127 173.36261 27155 ft 390 kts 57°
2026-05-05 00:57 -25.84555 173.38711 27148 ft 390 kts 57°
2026-05-05 00:57 -25.82982 173.41158 27148 ft 390 kts 57°
2026-05-05 00:57 -25.81407 173.43608 27151 ft 389 kts 56°
2026-05-05 00:57 -25.79834 173.46054 27142 ft 390 kts 57°
2026-05-05 00:58 -25.78256 173.48506 27150 ft 390 kts 57°
2026-05-05 00:58 -25.76683 173.50950 27156 ft 390 kts 57°
2026-05-05 00:58 -25.75105 173.53399 27159 ft 390 kts 57°
2026-05-05 00:58 -25.73544 173.55821 27154 ft 390 kts 56°
2026-05-05 00:59 -25.71966 173.58268 27144 ft 390 kts 56°
2026-05-05 00:59 -25.70388 173.60715 27144 ft 390 kts 56°
2026-05-05 00:59 -25.68811 173.63159 27147 ft 390 kts 56°
2026-05-05 00:59 -25.67234 173.65601 27147 ft 389 kts 56°
2026-05-05 01:00 -25.65656 173.68042 27146 ft 389 kts 56°
2026-05-05 01:00 -25.64081 173.70479 27148 ft 389 kts 56°
2026-05-05 01:00 -25.62502 173.72920 27144 ft 389 kts 56°
2026-05-05 01:00 -25.60924 173.75358 27144 ft 389 kts 56°
2026-05-05 01:01 -25.59344 173.77798 27143 ft 389 kts 56°
2026-05-05 01:01 -25.57768 173.80230 27141 ft 389 kts 56°
2026-05-05 01:01 -25.56211 173.82632 27142 ft 389 kts 56°
2026-05-05 01:01 -25.54635 173.85063 27140 ft 389 kts 56°
2026-05-05 01:02 -25.53057 173.87495 27142 ft 389 kts 56°
2026-05-05 01:02 -25.51479 173.89926 27141 ft 389 kts 56°
2026-05-05 01:02 -25.49899 173.92357 27145 ft 389 kts 56°
2026-05-05 01:02 -25.48320 173.94787 27145 ft 389 kts 56°
2026-05-05 01:03 -25.46742 173.97214 27136 ft 389 kts 56°
2026-05-05 01:03 -25.45160 173.99646 27137 ft 389 kts 56°
2026-05-05 01:03 -25.43580 174.02073 27139 ft 389 kts 56°
2026-05-05 01:03 -25.42000 174.04500 27139 ft 389 kts 56°
2026-05-05 01:04 -25.40418 174.06927 27142 ft 389 kts 56°
2026-05-05 01:04 -25.37255 174.11778 27139 ft 389 kts 56°
2026-05-05 01:04 -25.35675 174.14200 27137 ft 389 kts 56°
2026-05-05 01:05 -25.34094 174.16621 27136 ft 389 kts 56°
2026-05-05 01:05 -25.32510 174.19046 27136 ft 389 kts 56°
2026-05-05 01:05 -25.30930 174.21464 27136 ft 389 kts 56°
2026-05-05 01:05 -25.29347 174.23885 27136 ft 389 kts 56°
2026-05-05 01:06 -25.27762 174.26308 27136 ft 389 kts 56°
2026-05-05 01:06 -25.26179 174.28726 27136 ft 389 kts 56°
2026-05-05 01:06 -25.24594 174.31144 27142 ft 389 kts 56°
2026-05-05 01:06 -25.23010 174.33562 27134 ft 388 kts 56°
2026-05-05 01:07 -25.21448 174.35944 27123 ft 388 kts 56°
2026-05-05 01:07 -25.19867 174.38356 27132 ft 387 kts 56°
2026-05-05 01:07 -25.18285 174.40766 27134 ft 387 kts 56°
2026-05-05 01:07 -25.16704 174.43174 27133 ft 387 kts 56°
2026-05-05 01:08 -25.15121 174.45583 27130 ft 387 kts 56°
2026-05-05 01:08 -25.13540 174.47990 27130 ft 387 kts 56°
2026-05-05 01:08 -25.11959 174.50394 27131 ft 387 kts 56°
2026-05-05 01:08 -25.10374 174.52802 27129 ft 387 kts 56°
2026-05-05 01:09 -25.08793 174.55204 27128 ft 387 kts 56°
2026-05-05 01:09 -25.07209 174.57609 27128 ft 387 kts 56°
2026-05-05 01:09 -25.05625 174.60013 27126 ft 387 kts 56°
2026-05-05 01:09 -25.04041 174.62416 27122 ft 388 kts 56°
2026-05-05 01:10 -25.02454 174.64822 27125 ft 387 kts 56°
2026-05-05 01:10 -25.00869 174.67224 27136 ft 387 kts 55°
2026-05-05 01:10 -24.99264 174.69605 27130 ft 387 kts 54°
2026-05-05 01:10 -24.97646 174.71975 27126 ft 387 kts 55°
2026-05-05 01:11 -24.96071 174.74376 27126 ft 386 kts 56°
2026-05-05 01:11 -24.94520 174.76789 27126 ft 386 kts 56°
2026-05-05 01:11 -24.92979 174.79205 27123 ft 385 kts 56°
2026-05-05 01:11 -24.91441 174.81622 27103 ft 385 kts 57°
2026-05-05 01:12 -24.89904 174.84039 27118 ft 385 kts 57°
2026-05-05 01:12 -24.88367 174.86457 27118 ft 385 kts 57°
2026-05-05 01:12 -24.86825 174.88879 27120 ft 386 kts 57°
2026-05-05 01:12 -24.85285 174.91298 27119 ft 386 kts 57°
2026-05-05 01:13 -24.83741 174.93720 27122 ft 386 kts 57°
2026-05-05 01:13 -24.82201 174.96135 27122 ft 386 kts 57°
2026-05-05 01:13 -24.80677 174.98524 27120 ft 386 kts 57°
2026-05-05 01:13 -24.79131 175.00946 27122 ft 386 kts 57°
2026-05-05 01:14 -24.77583 175.03368 27118 ft 387 kts 57°
2026-05-05 01:14 -24.76037 175.05785 27128 ft 386 kts 56°
2026-05-05 01:14 -24.74491 175.08202 27120 ft 386 kts 56°
2026-05-05 01:14 -24.72946 175.10616 27120 ft 386 kts 56°
2026-05-05 01:15 -24.71400 175.13029 27120 ft 385 kts 56°
2026-05-05 01:15 -24.69857 175.15437 27121 ft 385 kts 56°
2026-05-05 01:15 -24.68313 175.17844 27114 ft 385 kts 56°
2026-05-05 01:15 -24.66772 175.20245 27115 ft 384 kts 56°
2026-05-05 01:16 -24.65232 175.22642 27119 ft 384 kts 56°
2026-05-05 01:16 -24.63690 175.25043 27116 ft 384 kts 56°
2026-05-05 01:16 -24.62149 175.27440 27116 ft 384 kts 56°
2026-05-05 01:16 -24.60607 175.29837 27115 ft 384 kts 56°
2026-05-05 01:17 -24.59086 175.32199 27117 ft 384 kts 56°
2026-05-05 01:17 -24.57541 175.34597 27117 ft 384 kts 56°
2026-05-05 01:17 -24.55999 175.36991 27111 ft 384 kts 56°
2026-05-05 01:17 -24.54457 175.39382 27112 ft 384 kts 56°
2026-05-05 01:18 -24.52913 175.41775 27108 ft 384 kts 56°
2026-05-05 01:18 -24.51371 175.44162 27121 ft 383 kts 55°
2026-05-05 01:18 -24.49827 175.46551 27110 ft 383 kts 55°
2026-05-05 01:18 -24.48284 175.48940 27109 ft 383 kts 55°
2026-05-05 01:19 -24.46746 175.51318 27111 ft 382 kts 55°
2026-05-05 01:19 -24.45204 175.53701 27112 ft 382 kts 55°
2026-05-05 01:19 -24.43667 175.56076 27104 ft 382 kts 55°
2026-05-05 01:19 -24.42129 175.58450 27106 ft 381 kts 55°
2026-05-05 01:20 -24.40591 175.60823 27107 ft 381 kts 55°
2026-05-05 01:20 -24.39054 175.63193 27106 ft 381 kts 55°
2026-05-05 01:20 -24.37516 175.65562 27107 ft 381 kts 55°
2026-05-05 01:20 -24.35979 175.67930 27105 ft 381 kts 55°
2026-05-05 01:21 -24.34442 175.70296 27106 ft 381 kts 55°
2026-05-05 01:21 -24.32923 175.72634 27107 ft 381 kts 55°
2026-05-05 01:21 -24.31384 175.75000 27097 ft 381 kts 55°
2026-05-05 01:21 -24.29846 175.77364 27103 ft 381 kts 55°
2026-05-05 01:22 -24.28307 175.79730 27102 ft 381 kts 55°
2026-05-05 01:22 -24.26765 175.82096 27104 ft 382 kts 55°
2026-05-05 01:22 -24.25223 175.84462 27100 ft 381 kts 55°
2026-05-05 01:22 -24.23681 175.86828 27101 ft 381 kts 55°
2026-05-05 01:23 -24.22139 175.89193 27099 ft 381 kts 55°
2026-05-05 01:23 -24.20596 175.91556 27086 ft 381 kts 55°
2026-05-05 01:23 -24.19056 175.93915 27100 ft 381 kts 55°
2026-05-05 01:23 -24.17512 175.96278 27087 ft 381 kts 55°
2026-05-05 01:24 -24.15990 175.98607 27095 ft 381 kts 55°
2026-05-05 01:24 -24.14428 176.00995 27094 ft 381 kts 54°
2026-05-05 01:24 -24.12908 176.03319 27094 ft 381 kts 55°
2026-05-05 01:24 -24.11365 176.05675 27095 ft 380 kts 54°
2026-05-05 01:25 -24.09824 176.08029 27098 ft 381 kts 54°
2026-05-05 01:25 -24.08281 176.10382 27091 ft 381 kts 55°
2026-05-05 01:25 -24.06739 176.12735 27093 ft 381 kts 55°
2026-05-05 01:25 -24.05197 176.15087 27091 ft 381 kts 54°
2026-05-05 01:26 -24.03652 176.17439 27092 ft 381 kts 55°
2026-05-05 01:26 -24.02609 176.19029 27100 ft 381 kts 54°
2026-05-05 01:26 -24.00565 176.22139 27091 ft 380 kts 54°
2026-05-05 01:26 -23.99545 176.23692 27095 ft 380 kts 54°
2026-05-05 01:27 -23.98001 176.26041 27091 ft 379 kts 54°
2026-05-05 01:27 -23.96460 176.28384 27089 ft 379 kts 54°
2026-05-05 01:27 -23.94919 176.30725 27090 ft 379 kts 54°
2026-05-05 01:27 -23.93378 176.33065 27090 ft 379 kts 54°
2026-05-05 01:28 -23.91838 176.35403 27087 ft 379 kts 54°
2026-05-05 01:28 -23.90296 176.37743 27088 ft 379 kts 54°
2026-05-05 01:28 -23.88753 176.40083 27087 ft 379 kts 54°
2026-05-05 01:28 -23.87211 176.42420 27085 ft 379 kts 54°
2026-05-05 01:29 -23.85667 176.44759 27094 ft 379 kts 54°
2026-05-05 01:29 -23.84125 176.47094 27090 ft 379 kts 54°
2026-05-05 01:29 -23.82582 176.49430 27081 ft 379 kts 54°
2026-05-05 01:29 -23.81037 176.51768 27082 ft 379 kts 54°
2026-05-05 01:30 -23.79492 176.54103 27080 ft 379 kts 54°
2026-05-05 01:30 -23.77948 176.56436 27084 ft 379 kts 54°
2026-05-05 01:30 -23.76404 176.58769 27086 ft 379 kts 54°
2026-05-05 01:30 -23.74877 176.61074 27083 ft 379 kts 54°
2026-05-05 01:31 -23.73333 176.63404 27085 ft 379 kts 54°
2026-05-05 01:31 -23.71787 176.65738 27085 ft 379 kts 54°
2026-05-05 01:31 -23.70238 176.68072 27073 ft 379 kts 54°
2026-05-05 01:31 -23.68693 176.70402 27081 ft 379 kts 54°
2026-05-05 01:32 -23.67146 176.72732 27080 ft 379 kts 54°
2026-05-05 01:32 -23.65600 176.75060 27077 ft 380 kts 54°
2026-05-05 01:32 -23.64051 176.77391 27079 ft 379 kts 54°
2026-05-05 01:32 -23.62503 176.79719 27078 ft 379 kts 54°
2026-05-05 01:33 -23.60956 176.82045 27077 ft 380 kts 54°
2026-05-05 01:33 -23.59405 176.84377 27079 ft 379 kts 54°
2026-05-05 01:33 -23.57856 176.86703 27076 ft 380 kts 54°
2026-05-05 01:33 -23.56303 176.89034 27075 ft 380 kts 54°
2026-05-05 01:34 -23.54753 176.91361 27077 ft 379 kts 54°
2026-05-05 01:34 -23.53202 176.93687 27075 ft 380 kts 54°
2026-05-05 01:34 -23.51649 176.96015 27083 ft 380 kts 53°
2026-05-05 01:34 -23.50096 176.98341 27077 ft 379 kts 53°
2026-05-05 01:35 -23.48543 177.00667 27072 ft 379 kts 53°
2026-05-05 01:35 -23.47013 177.02958 27072 ft 379 kts 53°
2026-05-05 01:35 -23.45464 177.05277 27073 ft 379 kts 53°
2026-05-05 01:35 -23.43914 177.07595 27072 ft 379 kts 53°
2026-05-05 01:36 -23.42366 177.09910 27071 ft 378 kts 53°
2026-05-05 01:36 -23.40816 177.12226 27072 ft 378 kts 53°
2026-05-05 01:36 -23.39270 177.14535 27061 ft 378 kts 53°
2026-05-05 01:36 -23.37725 177.16843 27071 ft 377 kts 53°
2026-05-05 01:37 -23.36179 177.19151 27068 ft 378 kts 53°
2026-05-05 01:37 -23.34631 177.21459 27070 ft 378 kts 53°
2026-05-05 01:37 -23.33079 177.23773 27067 ft 378 kts 53°
2026-05-05 01:37 -23.31531 177.26081 27061 ft 378 kts 53°
2026-05-05 01:38 -23.29981 177.28390 27062 ft 378 kts 53°
2026-05-05 01:38 -23.28431 177.30699 27063 ft 378 kts 53°
2026-05-05 01:38 -23.26883 177.33002 27066 ft 378 kts 52°
2026-05-05 01:38 -23.25332 177.35306 27064 ft 377 kts 52°
2026-05-05 01:39 -23.23785 177.37608 27067 ft 376 kts 52°
2026-05-05 01:39 -23.22263 177.39870 27065 ft 376 kts 52°
2026-05-05 01:39 -23.20719 177.42164 27060 ft 375 kts 52°
2026-05-05 01:39 -23.19176 177.44456 27059 ft 375 kts 53°
2026-05-05 01:40 -23.17635 177.46743 27059 ft 375 kts 52°
2026-05-05 01:40 -23.16095 177.49027 27059 ft 375 kts 52°
2026-05-05 01:40 -23.14554 177.51311 27060 ft 375 kts 52°
2026-05-05 01:40 -23.13014 177.53595 27057 ft 375 kts 52°
2026-05-05 01:41 -23.11474 177.55877 27058 ft 374 kts 52°
2026-05-05 01:41 -23.09933 177.58160 27060 ft 375 kts 52°
2026-05-05 01:41 -23.08392 177.60441 27040 ft 375 kts 53°
2026-05-05 01:41 -23.06849 177.62724 27051 ft 374 kts 53°
2026-05-05 01:42 -23.05311 177.65000 27056 ft 374 kts 53°
2026-05-05 01:42 -23.03770 177.67277 27052 ft 374 kts 53°
2026-05-05 01:42 -23.02228 177.69555 27057 ft 374 kts 53°
2026-05-05 01:42 -23.00687 177.71831 27052 ft 374 kts 52°
2026-05-05 01:43 -22.99148 177.74104 27050 ft 373 kts 52°
2026-05-05 01:43 -22.97610 177.76373 27050 ft 373 kts 52°
2026-05-05 01:43 -22.96073 177.78640 27040 ft 373 kts 52°
2026-05-05 01:43 -22.94539 177.80902 27045 ft 372 kts 52°
2026-05-05 01:44 -22.93003 177.83165 27041 ft 372 kts 52°
2026-05-05 01:44 -22.91472 177.85423 27043 ft 372 kts 51°
2026-05-05 01:44 -22.89937 177.87682 27043 ft 372 kts 52°
2026-05-05 01:44 -22.88420 177.89915 27046 ft 372 kts 52°
2026-05-05 01:45 -22.86886 177.92172 27043 ft 372 kts 51°
2026-05-05 01:45 -22.85352 177.94428 27047 ft 372 kts 52°
2026-05-05 01:45 -22.83816 177.96685 27047 ft 372 kts 52°
2026-05-05 01:45 -22.82281 177.98942 27042 ft 372 kts 52°
2026-05-05 01:46 -22.80746 178.01194 27043 ft 371 kts 52°
2026-05-05 01:46 -22.79213 178.03444 27033 ft 372 kts 52°
2026-05-05 01:46 -22.77678 178.05698 27039 ft 371 kts 52°
2026-05-05 01:46 -22.76145 178.07946 27030 ft 371 kts 53°
2026-05-05 01:47 -22.74609 178.10199 27042 ft 371 kts 52°
2026-05-05 01:47 -22.73075 178.12448 27039 ft 370 kts 52°
2026-05-05 01:47 -22.71542 178.14693 27039 ft 370 kts 53°
2026-05-05 01:47 -22.70009 178.16938 27033 ft 370 kts 52°
2026-05-05 01:48 -22.68479 178.19176 27038 ft 370 kts 53°
2026-05-05 01:48 -22.66953 178.21409 27032 ft 370 kts 52°
2026-05-05 01:48 -22.65421 178.23649 27029 ft 370 kts 52°
2026-05-05 01:48 -22.63892 178.25884 27030 ft 369 kts 52°
2026-05-05 01:49 -22.62362 178.28120 27030 ft 370 kts 52°
2026-05-05 01:49 -22.60831 178.30355 27031 ft 369 kts 52°
2026-05-05 01:49 -22.59303 178.32585 27033 ft 369 kts 53°
2026-05-05 01:49 -22.57772 178.34817 27026 ft 369 kts 52°
2026-05-05 01:50 -22.56245 178.37045 27025 ft 369 kts 52°
2026-05-05 01:50 -22.54720 178.39270 27027 ft 369 kts 52°
2026-05-05 01:50 -22.53190 178.41499 27027 ft 369 kts 52°
2026-05-05 01:50 -22.51660 178.43730 27032 ft 368 kts 52°
2026-05-05 01:51 -22.50150 178.45927 27030 ft 369 kts 52°
2026-05-05 01:51 -22.48620 178.48154 27030 ft 367 kts 51°
2026-05-05 01:51 -22.47101 178.50366 27028 ft 365 kts 52°
2026-05-05 01:51 -22.45590 178.52561 27023 ft 363 kts 51°
2026-05-05 01:52 -22.44086 178.54748 27016 ft 362 kts 52°
2026-05-05 01:52 -22.42585 178.56927 27018 ft 361 kts 52°
2026-05-05 01:52 -22.41089 178.59102 27014 ft 360 kts 51°
2026-05-05 01:52 -22.39592 178.61273 27018 ft 360 kts 52°
2026-05-05 01:53 -22.38097 178.63442 27018 ft 360 kts 52°
2026-05-05 01:53 -22.36602 178.65613 27019 ft 359 kts 52°
2026-05-05 01:53 -22.35110 178.67777 27020 ft 359 kts 52°
2026-05-05 01:53 -22.33619 178.69941 27020 ft 359 kts 51°
2026-05-05 01:54 -22.32125 178.72107 27017 ft 359 kts 51°
2026-05-05 01:54 -22.30633 178.74268 27011 ft 359 kts 50°
2026-05-05 01:54 -22.29158 178.76401 27016 ft 359 kts 51°
2026-05-05 01:54 -22.27647 178.78590 27015 ft 359 kts 52°
2026-05-05 01:55 -22.26168 178.80729 27011 ft 359 kts 51°
2026-05-05 01:55 -22.24673 178.82888 27009 ft 359 kts 52°
2026-05-05 01:55 -22.23179 178.85047 27017 ft 359 kts 51°
2026-05-05 01:55 -22.21685 178.87204 27015 ft 358 kts 51°
2026-05-05 01:56 -22.20200 178.89351 27015 ft 356 kts 51°
2026-05-05 01:56 -22.18721 178.91488 27006 ft 355 kts 51°
2026-05-05 01:56 -22.17242 178.93618 27005 ft 354 kts 51°
2026-05-05 01:56 -22.15768 178.95741 27007 ft 353 kts 51°
2026-05-05 01:57 -22.14297 178.97863 27009 ft 353 kts 50°
2026-05-05 01:57 -22.12829 178.99980 27011 ft 352 kts 50°
2026-05-05 01:57 -22.11360 179.02099 27009 ft 353 kts 51°
2026-05-05 01:57 -22.09887 179.04221 27005 ft 353 kts 50°
2026-05-05 01:58 -22.08415 179.06339 27009 ft 353 kts 51°
2026-05-05 01:58 -22.06940 179.08463 27007 ft 354 kts 50°
2026-05-05 01:58 -22.05464 179.10585 27004 ft 354 kts 50°
2026-05-05 01:58 -22.04007 179.12678 27002 ft 354 kts 50°
2026-05-05 01:59 -22.02531 179.14800 27003 ft 354 kts 51°
2026-05-05 01:59 -22.01051 179.16928 27003 ft 354 kts 51°
2026-05-05 01:59 -21.99573 179.19051 26996 ft 354 kts 50°
2026-05-05 01:59 -21.98094 179.21174 27003 ft 354 kts 51°
2026-05-05 02:00 -21.96614 179.23299 27003 ft 354 kts 50°
2026-05-05 02:00 -21.95136 179.25417 27007 ft 354 kts 50°
2026-05-05 02:00 -21.93660 179.27536 27005 ft 353 kts 50°
2026-05-05 02:00 -21.92182 179.29653 26998 ft 353 kts 52°
2026-05-05 02:01 -21.90707 179.31763 26998 ft 352 kts 50°
2026-05-05 02:01 -21.89235 179.33871 26997 ft 352 kts 52°
2026-05-05 02:01 -21.87764 179.35982 26994 ft 352 kts 50°
2026-05-05 02:01 -21.86294 179.38089 26997 ft 352 kts 50°
2026-05-05 02:02 -21.84822 179.40194 26995 ft 352 kts 51°
2026-05-05 02:02 -21.83349 179.42297 26991 ft 352 kts 51°
2026-05-05 02:02 -21.81875 179.44402 26994 ft 352 kts 51°
2026-05-05 02:02 -21.80405 179.46502 26995 ft 352 kts 50°
2026-05-05 02:03 -21.78953 179.48577 26987 ft 352 kts 51°
2026-05-05 02:03 -21.77481 179.50680 26987 ft 352 kts 52°
2026-05-05 02:03 -21.76010 179.52780 26988 ft 352 kts 52°
2026-05-05 02:03 -21.74536 179.54881 26988 ft 352 kts 51°
2026-05-05 02:04 -21.73065 179.56979 26990 ft 352 kts 51°
2026-05-05 02:04 -21.71589 179.59083 26991 ft 352 kts 52°
2026-05-05 02:04 -21.70117 179.61182 26991 ft 352 kts 52°
2026-05-05 02:04 -21.68643 179.63281 26993 ft 351 kts 51°
2026-05-05 02:05 -21.67172 179.65377 26986 ft 351 kts 51°
2026-05-05 02:05 -21.65704 179.67467 26988 ft 350 kts 51°
2026-05-05 02:05 -21.64237 179.69555 26988 ft 350 kts 52°
2026-05-05 02:05 -21.62773 179.71636 26988 ft 349 kts 52°
2026-05-05 02:06 -21.61310 179.73717 26988 ft 349 kts 51°
2026-05-05 02:06 -21.59848 179.75795 26988 ft 348 kts 51°
2026-05-05 02:06 -21.58406 179.77844 26989 ft 348 kts 51°
2026-05-05 02:06 -21.56944 179.79919 26988 ft 348 kts 52°
2026-05-05 02:07 -21.55485 179.81990 26990 ft 348 kts 52°
2026-05-05 02:07 -21.54025 179.84062 26988 ft 348 kts 51°
2026-05-05 02:07 -21.52563 179.86137 26985 ft 348 kts 51°
2026-05-05 02:07 -21.51101 179.88207 26991 ft 348 kts 51°
2026-05-05 02:08 -21.49637 179.90282 26985 ft 349 kts 52°
2026-05-05 02:08 -21.48170 179.92362 26983 ft 349 kts 52°
2026-05-05 02:08 -21.46702 179.94443 26983 ft 350 kts 51°
2026-05-05 02:08 -21.45230 179.96526 26991 ft 350 kts 51°
2026-05-05 02:09 -21.43755 179.98613 26986 ft 351 kts 51°
2026-05-05 02:09 -21.42256 -179.99318 26980 ft 351 kts 49°
2026-05-05 02:09 -21.40720 -179.97290 26985 ft 350 kts 49°
2026-05-05 02:09 -21.39213 -179.95246 26980 ft 349 kts 51°
2026-05-05 02:10 -21.37724 -179.93190 26982 ft 349 kts 51°
2026-05-05 02:10 -21.36244 -179.91130 26983 ft 349 kts 50°
2026-05-05 02:10 -21.34767 -179.89069 26984 ft 348 kts 50°
2026-05-05 02:10 -21.33291 -179.87006 26982 ft 348 kts 50°
2026-05-05 02:11 -21.31819 -179.84949 26978 ft 348 kts 51°
2026-05-05 02:11 -21.30346 -179.82890 26981 ft 348 kts 51°
2026-05-05 02:11 -21.28874 -179.80832 26981 ft 347 kts 50°
2026-05-05 02:11 -21.27403 -179.78778 26979 ft 347 kts 50°
2026-05-05 02:12 -21.25933 -179.76725 26977 ft 347 kts 51°
2026-05-05 02:12 -21.23007 -179.72644 26975 ft 347 kts 50°
2026-05-05 02:12 -21.21536 -179.70593 26974 ft 347 kts 50°
2026-05-05 02:13 -21.20062 -179.68541 26974 ft 347 kts 51°
2026-05-05 02:13 -21.18589 -179.66488 26974 ft 347 kts 51°
2026-05-05 02:13 -21.17118 -179.64441 26975 ft 347 kts 51°
2026-05-05 02:13 -21.15644 -179.62391 26974 ft 347 kts 51°
2026-05-05 02:14 -21.14169 -179.60340 26973 ft 347 kts 51°
2026-05-05 02:14 -21.12694 -179.58289 26967 ft 348 kts 50°
2026-05-05 02:14 -21.11214 -179.56235 26970 ft 348 kts 51°
2026-05-05 02:14 -21.09738 -179.54184 26970 ft 348 kts 51°
2026-05-05 02:15 -21.08257 -179.52128 26965 ft 348 kts 51°
2026-05-05 02:15 -21.06775 -179.50072 26966 ft 348 kts 50°
2026-05-05 02:15 -21.05293 -179.48018 26967 ft 349 kts 51°
2026-05-05 02:15 -21.03810 -179.45963 26966 ft 349 kts 51°
2026-05-05 02:16 -21.02330 -179.43912 26969 ft 349 kts 51°
2026-05-05 02:16 -21.00845 -179.41855 26971 ft 349 kts 50°
2026-05-05 02:16 -20.99362 -179.39804 26960 ft 349 kts 51°
2026-05-05 02:16 -20.97876 -179.37747 26961 ft 349 kts 50°
2026-05-05 02:17 -20.96392 -179.35694 26964 ft 349 kts 50°
2026-05-05 02:17 -20.94925 -179.33666 26960 ft 349 kts 50°
2026-05-05 02:17 -20.93437 -179.31612 26960 ft 349 kts 50°
2026-05-05 02:17 -20.91952 -179.29561 26961 ft 349 kts 51°
2026-05-05 02:18 -20.90465 -179.27507 26960 ft 349 kts 50°
2026-05-05 02:18 -20.88978 -179.25456 26961 ft 349 kts 50°
2026-05-05 02:18 -20.87973 -179.24069 26961 ft 349 kts 50°
2026-05-05 02:18 -20.86485 -179.22017 26958 ft 349 kts 51°
2026-05-05 02:19 -20.84997 -179.19965 26957 ft 349 kts 50°
2026-05-05 02:19 -20.83525 -179.17938 26958 ft 350 kts 50°
2026-05-05 02:19 -20.82036 -179.15887 26958 ft 350 kts 51°
2026-05-05 02:19 -20.80543 -179.13832 26958 ft 350 kts 51°
2026-05-05 02:20 -20.79051 -179.11778 26953 ft 350 kts 51°
2026-05-05 02:20 -20.77554 -179.09719 26958 ft 351 kts 51°
2026-05-05 02:20 -20.76055 -179.07657 26960 ft 352 kts 51°
2026-05-05 02:20 -20.74553 -179.05593 26958 ft 352 kts 51°
2026-05-05 02:21 -20.73050 -179.03528 26953 ft 352 kts 51°
2026-05-05 02:21 -20.71545 -179.01461 26952 ft 353 kts 51°
2026-05-05 02:21 -20.70039 -178.99393 26952 ft 353 kts 51°
2026-05-05 02:21 -20.68531 -178.97325 26954 ft 353 kts 51°
2026-05-05 02:22 -20.67023 -178.95255 26955 ft 353 kts 51°
2026-05-05 02:22 -20.65511 -178.93183 26955 ft 354 kts 51°
2026-05-05 02:22 -20.64000 -178.91112 26952 ft 354 kts 51°
2026-05-05 02:22 -20.62489 -178.89042 26952 ft 353 kts 51°
2026-05-05 02:23 -20.60978 -178.86972 26950 ft 353 kts 51°
2026-05-05 02:23 -20.59468 -178.84904 26954 ft 353 kts 51°
2026-05-05 02:23 -20.57954 -178.82834 26951 ft 353 kts 51°
2026-05-05 02:23 -20.56443 -178.80766 26949 ft 353 kts 51°
2026-05-05 02:24 -20.54932 -178.78700 26948 ft 353 kts 51°
2026-05-05 02:24 -20.53442 -178.76663 26950 ft 353 kts 51°
2026-05-05 02:24 -20.51930 -178.74597 26951 ft 353 kts 51°
2026-05-05 02:24 -20.50420 -178.72534 26949 ft 353 kts 51°
2026-05-05 02:25 -20.48908 -178.70470 26953 ft 353 kts 51°
2026-05-05 02:25 -20.47398 -178.68409 26950 ft 353 kts 51°
2026-05-05 02:25 -20.45886 -178.66345 26947 ft 353 kts 51°
2026-05-05 02:25 -20.44373 -178.64282 26947 ft 353 kts 51°
2026-05-05 02:26 -20.42857 -178.62216 26946 ft 354 kts 51°
2026-05-05 02:26 -20.41340 -178.60148 26944 ft 354 kts 51°
2026-05-05 02:26 -20.39822 -178.58081 26946 ft 354 kts 51°
2026-05-05 02:26 -20.38304 -178.56013 26945 ft 354 kts 51°
2026-05-05 02:27 -20.36782 -178.53941 26946 ft 355 kts 51°
2026-05-05 02:27 -20.35259 -178.51868 26946 ft 355 kts 51°
2026-05-05 02:27 -20.33741 -178.49803 26946 ft 355 kts 51°
2026-05-05 02:27 -20.32218 -178.47733 26938 ft 355 kts 51°
2026-05-05 02:28 -20.30696 -178.45664 26943 ft 354 kts 51°
2026-05-05 02:28 -20.29178 -178.43602 26938 ft 354 kts 51°
2026-05-05 02:28 -20.27659 -178.41539 26938 ft 354 kts 51°
2026-05-05 02:28 -20.26142 -178.39479 26939 ft 353 kts 50°
2026-05-05 02:29 -20.24627 -178.37422 26939 ft 353 kts 50°
2026-05-05 02:29 -20.23107 -178.35361 26940 ft 353 kts 51°
2026-05-05 02:29 -20.21592 -178.33306 26939 ft 353 kts 51°
2026-05-05 02:29 -20.20075 -178.31248 26938 ft 353 kts 50°
2026-05-05 02:30 -20.18573 -178.29213 26934 ft 353 kts 50°
2026-05-05 02:30 -20.17054 -178.27156 26936 ft 353 kts 51°
2026-05-05 02:30 -20.15538 -178.25102 26937 ft 353 kts 50°
2026-05-05 02:30 -20.14020 -178.23047 26936 ft 353 kts 51°
2026-05-05 02:31 -20.12501 -178.20992 26931 ft 353 kts 51°
2026-05-05 02:31 -20.10978 -178.18932 26931 ft 355 kts 49°
2026-05-05 02:31 -20.09450 -178.16865 26932 ft 356 kts 49°
2026-05-05 02:31 -20.07914 -178.14789 26937 ft 357 kts 50°
2026-05-05 02:32 -20.06374 -178.12708 26935 ft 358 kts 50°
2026-05-05 02:32 -20.04832 -178.10624 26926 ft 359 kts 50°
2026-05-05 02:32 -20.03287 -178.08539 26930 ft 359 kts 49°
2026-05-05 02:32 -20.01741 -178.06452 26928 ft 359 kts 49°
2026-05-05 02:33 -20.00197 -178.04368 26927 ft 359 kts 49°
2026-05-05 02:33 -19.98650 -178.02282 26928 ft 359 kts 49°
2026-05-05 02:33 -19.97106 -178.00200 26928 ft 359 kts 49°
2026-05-05 02:33 -19.95563 -177.98119 26928 ft 359 kts 49°
2026-05-05 02:34 -19.94018 -177.96036 26926 ft 358 kts 49°
2026-05-05 02:34 -19.92475 -177.93958 26923 ft 358 kts 49°
2026-05-05 02:34 -19.90928 -177.91876 26926 ft 358 kts 49°
2026-05-05 02:34 -19.89385 -177.89797 26924 ft 358 kts 49°
2026-05-05 02:35 -19.87841 -177.87721 26917 ft 358 kts 49°
2026-05-05 02:35 -19.86314 -177.85668 26919 ft 358 kts 48°
2026-05-05 02:35 -19.84768 -177.83589 26920 ft 358 kts 49°
2026-05-05 02:35 -19.83222 -177.81511 26920 ft 358 kts 49°
2026-05-05 02:36 -19.81678 -177.79435 26922 ft 358 kts 48°
2026-05-05 02:36 -19.80128 -177.77354 26919 ft 359 kts 49°
2026-05-05 02:36 -19.78583 -177.75280 26920 ft 358 kts 50°
2026-05-05 02:36 -19.77034 -177.73201 26914 ft 359 kts 49°
2026-05-05 02:37 -19.75486 -177.71123 26915 ft 359 kts 49°
2026-05-05 02:37 -19.73934 -177.69040 26916 ft 359 kts 49°
2026-05-05 02:37 -19.72383 -177.66961 26918 ft 359 kts 49°
2026-05-05 02:37 -19.70831 -177.64879 26917 ft 360 kts 49°
2026-05-05 02:38 -19.69279 -177.62800 26917 ft 360 kts 49°
2026-05-05 02:38 -19.67726 -177.60720 26917 ft 360 kts 49°
2026-05-05 02:38 -19.66172 -177.58639 26917 ft 360 kts 49°
2026-05-05 02:38 -19.64617 -177.56558 26912 ft 360 kts 49°
2026-05-05 02:39 -19.63065 -177.54481 26912 ft 360 kts 49°
2026-05-05 02:39 -19.61509 -177.52400 26911 ft 360 kts 49°
2026-05-05 02:39 -19.59976 -177.50351 26912 ft 360 kts 49°
2026-05-05 02:39 -19.58421 -177.48272 26911 ft 360 kts 49°
2026-05-05 02:40 -19.56867 -177.46196 26910 ft 360 kts 49°
2026-05-05 02:40 -19.55311 -177.44119 26912 ft 360 kts 49°
2026-05-05 02:40 -19.53756 -177.42042 26912 ft 360 kts 49°
2026-05-05 02:40 -19.52200 -177.39966 26908 ft 360 kts 49°
2026-05-05 02:41 -19.50643 -177.37886 26907 ft 360 kts 49°
2026-05-05 02:41 -19.49099 -177.35800 26907 ft 360 kts 49°
2026-05-05 02:41 -19.47563 -177.33706 26905 ft 360 kts 49°
2026-05-05 02:41 -19.46030 -177.31607 26902 ft 360 kts 49°
2026-05-05 02:42 -19.44498 -177.29509 26909 ft 360 kts 49°
2026-05-05 02:42 -19.42966 -177.27410 26905 ft 360 kts 49°
2026-05-05 02:42 -19.41435 -177.25312 26909 ft 360 kts 49°
2026-05-05 02:42 -19.39904 -177.23214 26904 ft 360 kts 49°
2026-05-05 02:43 -19.38374 -177.21119 26902 ft 360 kts 49°
2026-05-05 02:43 -19.36843 -177.19022 26903 ft 360 kts 49°
2026-05-05 02:43 -19.35331 -177.16953 26903 ft 360 kts 49°
2026-05-05 02:43 -19.33801 -177.14859 26903 ft 360 kts 49°
2026-05-05 02:44 -19.32269 -177.12764 26902 ft 360 kts 49°
2026-05-05 02:44 -19.30736 -177.10668 26901 ft 360 kts 49°
2026-05-05 02:44 -19.29200 -177.08569 26898 ft 360 kts 49°
2026-05-05 02:44 -19.27665 -177.06473 26897 ft 360 kts 49°
2026-05-05 02:45 -19.26131 -177.04378 26897 ft 360 kts 49°
2026-05-05 02:45 -19.24595 -177.02281 26898 ft 360 kts 49°
2026-05-05 02:45 -19.23059 -177.00187 26892 ft 360 kts 49°
2026-05-05 02:45 -19.21524 -176.98092 26892 ft 360 kts 49°
2026-05-05 02:46 -19.19989 -176.96000 26891 ft 360 kts 49°
2026-05-05 02:46 -19.18454 -176.93907 26892 ft 360 kts 48°
2026-05-05 02:46 -19.16917 -176.91815 26891 ft 360 kts 48°
2026-05-05 02:46 -19.15383 -176.89726 26893 ft 359 kts 48°
2026-05-05 02:47 -19.13852 -176.87641 26891 ft 359 kts 48°
2026-05-05 02:47 -19.12336 -176.85578 26890 ft 359 kts 48°
2026-05-05 02:47 -19.10802 -176.83493 26889 ft 359 kts 48°
2026-05-05 02:47 -19.09270 -176.81409 26890 ft 359 kts 48°
2026-05-05 02:48 -19.07733 -176.79320 26886 ft 360 kts 47°
2026-05-05 02:48 -19.06194 -176.77230 26891 ft 361 kts 47°
2026-05-05 02:48 -19.04652 -176.75135 26890 ft 362 kts 47°
2026-05-05 02:48 -19.03105 -176.73035 26890 ft 362 kts 47°
2026-05-05 02:49 -19.01557 -176.70934 26891 ft 363 kts 47°
2026-05-05 02:49 -19.00004 -176.68828 26890 ft 363 kts 47°
2026-05-05 02:49 -18.98450 -176.66721 26890 ft 363 kts 47°
2026-05-05 02:49 -18.96897 -176.64615 26890 ft 364 kts 47°
2026-05-05 02:50 -18.95341 -176.62506 26883 ft 364 kts 47°
2026-05-05 02:50 -18.93784 -176.60398 26882 ft 364 kts 47°
2026-05-05 02:50 -18.92228 -176.58290 26882 ft 364 kts 47°
2026-05-05 02:50 -18.90672 -176.56183 26871 ft 364 kts 46°
2026-05-05 02:51 -18.89114 -176.54075 26881 ft 363 kts 46°
2026-05-05 02:51 -18.87560 -176.51973 26882 ft 363 kts 46°
2026-05-05 02:51 -18.86005 -176.49870 26882 ft 363 kts 46°
2026-05-05 02:51 -18.84452 -176.47772 26879 ft 363 kts 46°
2026-05-05 02:52 -18.82897 -176.45670 26877 ft 363 kts 46°
2026-05-05 02:52 -18.81343 -176.43572 26879 ft 363 kts 46°
2026-05-05 02:52 -18.79788 -176.41471 26876 ft 363 kts 46°
2026-05-05 02:52 -18.78254 -176.39402 26876 ft 363 kts 46°
2026-05-05 02:53 -18.76700 -176.37304 26877 ft 363 kts 46°
2026-05-05 02:53 -18.75145 -176.35207 26876 ft 363 kts 46°
2026-05-05 02:53 -18.73590 -176.33110 26866 ft 363 kts 45°
2026-05-05 02:53 -18.72036 -176.31016 26876 ft 363 kts 45°
2026-05-05 02:54 -18.70480 -176.28919 26876 ft 363 kts 45°
2026-05-05 02:54 -18.68923 -176.26822 26876 ft 363 kts 45°
2026-05-05 02:54 -18.67364 -176.24723 26876 ft 363 kts 45°
2026-05-05 02:54 -18.65803 -176.22622 26867 ft 364 kts 45°
2026-05-05 02:55 -18.64244 -176.20524 26869 ft 364 kts 45°
2026-05-05 02:55 -18.62686 -176.18428 26868 ft 364 kts 45°
2026-05-05 02:55 -18.61124 -176.16327 26860 ft 364 kts 45°
2026-05-05 02:55 -18.59565 -176.14231 26869 ft 363 kts 45°
2026-05-05 02:56 -18.58006 -176.12136 26867 ft 363 kts 45°
2026-05-05 02:56 -18.56447 -176.10042 26867 ft 363 kts 45°
2026-05-05 02:56 -18.54888 -176.07949 26868 ft 363 kts 45°
2026-05-05 02:56 -18.53329 -176.05856 26868 ft 363 kts 45°
2026-05-05 02:57 -18.51772 -176.03767 26867 ft 363 kts 45°
2026-05-05 02:57 -18.50213 -176.01676 26867 ft 363 kts 45°
2026-05-05 02:57 -18.48654 -175.99585 26869 ft 363 kts 45°
2026-05-05 02:57 -18.47092 -175.97491 26868 ft 363 kts 45°
2026-05-05 02:58 -18.45532 -175.95400 26867 ft 363 kts 45°
2026-05-05 02:58 -18.43971 -175.93310 26868 ft 363 kts 45°
2026-05-05 02:58 -18.42410 -175.91218 26867 ft 363 kts 45°
2026-05-05 02:58 -18.40848 -175.89128 26868 ft 363 kts 45°
2026-05-05 02:59 -18.39290 -175.87043 26869 ft 363 kts 45°
2026-05-05 02:59 -18.37726 -175.84950 26848 ft 363 kts 44°
2026-05-05 02:59 -18.36166 -175.82864 26856 ft 363 kts 44°
2026-05-05 02:59 -18.34625 -175.80803 26870 ft 363 kts 44°
2026-05-05 03:00 -18.33039 -175.78685 26863 ft 363 kts 44°
2026-05-05 03:00 -18.31497 -175.76624 26860 ft 364 kts 44°
2026-05-05 03:00 -18.29932 -175.74534 26865 ft 364 kts 44°
2026-05-05 03:00 -18.28365 -175.72442 26864 ft 364 kts 44°
2026-05-05 03:01 -18.26799 -175.70351 26872 ft 364 kts 44°
2026-05-05 03:01 -18.25231 -175.68259 26861 ft 364 kts 44°
2026-05-05 03:01 -18.23665 -175.66170 26854 ft 364 kts 44°
2026-05-05 03:01 -18.22096 -175.64078 26866 ft 364 kts 44°
2026-05-05 03:02 -18.20530 -175.61990 26869 ft 364 kts 44°
2026-05-05 03:02 -18.18961 -175.59899 26858 ft 364 kts 44°
2026-05-05 03:02 -18.17391 -175.57807 26857 ft 364 kts 44°
2026-05-05 03:02 -18.15819 -175.55715 26860 ft 364 kts 44°
2026-05-05 03:03 -18.14252 -175.53628 26868 ft 364 kts 44°
2026-05-05 03:03 -18.12682 -175.51539 26860 ft 364 kts 44°
2026-05-05 03:03 -18.11110 -175.49448 26867 ft 364 kts 44°
2026-05-05 03:03 -18.09560 -175.47386 26867 ft 364 kts 44°
2026-05-05 03:04 -18.07990 -175.45298 26862 ft 364 kts 44°
2026-05-05 03:04 -18.06420 -175.43212 26860 ft 364 kts 44°
2026-05-05 03:04 -18.04850 -175.41125 26844 ft 363 kts 44°
2026-05-05 03:04 -18.03285 -175.39047 26860 ft 362 kts 44°
2026-05-05 03:05 -18.01727 -175.36978 26864 ft 361 kts 44°
2026-05-05 03:05 -18.00168 -175.34909 26860 ft 361 kts 44°
2026-05-05 03:05 -17.98611 -175.32843 26856 ft 360 kts 44°
2026-05-05 03:05 -17.97056 -175.30780 26861 ft 360 kts 44°
2026-05-05 03:06 -17.95499 -175.28717 26853 ft 360 kts 44°
2026-05-05 03:06 -17.93946 -175.26658 26861 ft 360 kts 44°
2026-05-05 03:06 -17.92391 -175.24596 26852 ft 360 kts 44°
2026-05-05 03:06 -17.90836 -175.22536 26861 ft 360 kts 44°
2026-05-05 03:07 -17.89283 -175.20480 26853 ft 360 kts 44°
2026-05-05 03:07 -17.87749 -175.18449 26857 ft 359 kts 44°
2026-05-05 03:07 -17.86194 -175.16390 26853 ft 359 kts 44°
2026-05-05 03:07 -17.84642 -175.14337 26855 ft 359 kts 44°
2026-05-05 03:08 -17.83086 -175.12279 26858 ft 359 kts 44°
2026-05-05 03:08 -17.81533 -175.10225 26854 ft 359 kts 44°
2026-05-05 03:08 -17.79979 -175.08171 26856 ft 359 kts 43°
2026-05-05 03:08 -17.78424 -175.06116 26850 ft 359 kts 44°
2026-05-05 03:09 -17.76868 -175.04061 26837 ft 359 kts 43°
2026-05-05 03:09 -17.75317 -175.02012 26851 ft 358 kts 43°
2026-05-05 03:09 -17.73749 -174.99997 26855 ft 354 kts 40°
2026-05-05 03:09 -17.72090 -174.98093 26854 ft 353 kts 39°
2026-05-05 03:10 -17.70433 -174.96192 26854 ft 353 kts 39°
2026-05-05 03:10 -17.68781 -174.94287 26852 ft 353 kts 39°
2026-05-05 03:10 -17.67129 -174.92378 26834 ft 353 kts 39°
2026-05-05 03:10 -17.65482 -174.90474 26852 ft 352 kts 39°
2026-05-05 03:11 -17.63838 -174.88573 26850 ft 352 kts 39°
2026-05-05 03:11 -17.62191 -174.86670 26849 ft 352 kts 39°
2026-05-05 03:11 -17.60546 -174.84769 26851 ft 352 kts 39°
2026-05-05 03:11 -17.59454 -174.83508 26851 ft 353 kts 39°
2026-05-05 03:12 -17.57271 -174.80987 26850 ft 353 kts 39°
2026-05-05 03:12 -17.55621 -174.79083 26851 ft 353 kts 39°
2026-05-05 03:12 -17.53972 -174.77179 26852 ft 353 kts 39°
2026-05-05 03:12 -17.52323 -174.75278 26847 ft 352 kts 39°
2026-05-05 03:13 -17.50675 -174.73376 26849 ft 352 kts 39°
2026-05-05 03:13 -17.49025 -174.71475 26849 ft 352 kts 39°
2026-05-05 03:13 -17.47931 -174.70214 26850 ft 352 kts 39°
2026-05-05 03:13 -17.46282 -174.68314 26848 ft 352 kts 39°
2026-05-05 03:14 -17.44634 -174.66416 26837 ft 352 kts 39°
2026-05-05 03:14 -17.42987 -174.64520 26845 ft 352 kts 39°
2026-05-05 03:14 -17.41342 -174.62626 26850 ft 351 kts 39°
2026-05-05 03:14 -17.39698 -174.60735 26849 ft 351 kts 39°
2026-05-05 03:15 -17.38054 -174.58843 26846 ft 351 kts 39°
2026-05-05 03:15 -17.36411 -174.56954 26849 ft 351 kts 39°
2026-05-05 03:15 -17.34768 -174.55066 26847 ft 351 kts 39°
2026-05-05 03:15 -17.33125 -174.53178 26849 ft 351 kts 39°
2026-05-05 03:16 -17.31485 -174.51294 26836 ft 350 kts 40°
2026-05-05 03:16 -17.29844 -174.49408 26860 ft 350 kts 40°
2026-05-05 03:16 -17.28204 -174.47526 26852 ft 350 kts 40°
2026-05-05 03:16 -17.26563 -174.45642 26854 ft 350 kts 40°
2026-05-05 03:17 -17.24919 -174.43757 26849 ft 350 kts 40°
2026-05-05 03:17 -17.23277 -174.41873 26850 ft 350 kts 40°
2026-05-05 03:17 -17.21634 -174.39990 26858 ft 350 kts 40°
2026-05-05 03:17 -17.19991 -174.38106 26847 ft 351 kts 40°
2026-05-05 03:18 -17.18349 -174.36224 26852 ft 351 kts 40°
2026-05-05 03:18 -17.16703 -174.34339 26861 ft 351 kts 40°
2026-05-05 03:18 -17.15052 -174.32448 26847 ft 352 kts 40°
2026-05-05 03:18 -17.13423 -174.30584 26851 ft 351 kts 40°
2026-05-05 03:19 -17.10127 -174.26811 26852 ft 351 kts 39°
2026-05-05 03:19 -17.08480 -174.24927 26855 ft 351 kts 39°
2026-05-05 03:19 -17.06834 -174.23045 26844 ft 351 kts 39°
2026-05-05 03:20 -17.05186 -174.21161 26858 ft 351 kts 39°
2026-05-05 03:20 -17.03536 -174.19276 26854 ft 351 kts 39°
2026-05-05 03:20 -17.01890 -174.17395 26854 ft 351 kts 39°
2026-05-05 03:20 -17.00244 -174.15515 26852 ft 351 kts 39°
2026-05-05 03:21 -16.98599 -174.13637 26860 ft 351 kts 39°
2026-05-05 03:21 -16.96949 -174.11753 26852 ft 351 kts 39°
2026-05-05 03:21 -16.95303 -174.09875 26838 ft 351 kts 40°
2026-05-05 03:21 -16.93655 -174.07996 26854 ft 351 kts 40°
2026-05-05 03:22 -16.92026 -174.06137 26856 ft 351 kts 40°
2026-05-05 03:22 -16.90377 -174.04258 26856 ft 351 kts 40°
2026-05-05 03:22 -16.88723 -174.02372 26854 ft 352 kts 40°
2026-05-05 03:22 -16.87070 -174.00489 26854 ft 352 kts 40°
2026-05-05 03:23 -16.85416 -173.98605 26856 ft 352 kts 40°
2026-05-05 03:23 -16.83760 -173.96719 26854 ft 352 kts 40°
2026-05-05 03:23 -16.82104 -173.94834 26853 ft 352 kts 40°
2026-05-05 03:23 -16.80447 -173.92948 26855 ft 352 kts 40°
2026-05-05 03:24 -16.78790 -173.91063 26848 ft 352 kts 40°
2026-05-05 03:24 -16.77134 -173.89179 26853 ft 352 kts 40°
2026-05-05 03:24 -16.75478 -173.87295 26854 ft 352 kts 40°
2026-05-05 03:24 -16.73821 -173.85411 26854 ft 352 kts 40°
2026-05-05 03:25 -16.72164 -173.83529 26854 ft 352 kts 40°
2026-05-05 03:25 -16.70507 -173.81646 26854 ft 352 kts 40°
2026-05-05 03:25 -16.68849 -173.79762 26854 ft 352 kts 40°
2026-05-05 03:25 -16.67190 -173.77879 26854 ft 353 kts 40°
2026-05-05 03:26 -16.65531 -173.75995 26855 ft 353 kts 40°
2026-05-05 03:26 -16.63894 -173.74137 26854 ft 353 kts 40°
2026-05-05 03:26 -16.62236 -173.72257 26854 ft 353 kts 40°
2026-05-05 03:26 -16.60574 -173.70372 26854 ft 353 kts 40°
2026-05-05 03:27 -16.58911 -173.68486 26845 ft 353 kts 40°
2026-05-05 03:27 -16.57252 -173.66605 26854 ft 353 kts 40°
2026-05-05 03:27 -16.55587 -173.64719 26853 ft 353 kts 40°
2026-05-05 03:27 -16.53922 -173.62832 26855 ft 354 kts 40°
2026-05-05 03:28 -16.52257 -173.60946 26860 ft 354 kts 40°
2026-05-05 03:28 -16.50591 -173.59060 26857 ft 354 kts 40°
2026-05-05 03:28 -16.48922 -173.57170 26858 ft 354 kts 40°
2026-05-05 03:28 -16.47253 -173.55281 26857 ft 354 kts 40°
2026-05-05 03:29 -16.45582 -173.53391 26850 ft 355 kts 40°
2026-05-05 03:29 -16.43913 -173.51503 26856 ft 354 kts 40°
2026-05-05 03:29 -16.42243 -173.49614 26857 ft 354 kts 40°
2026-05-05 03:29 -16.40576 -173.47730 26857 ft 354 kts 40°
2026-05-05 03:30 -16.38907 -173.45844 26861 ft 354 kts 40°
2026-05-05 03:30 -16.37241 -173.43961 26857 ft 354 kts 40°
2026-05-05 03:30 -16.35574 -173.42078 26857 ft 354 kts 40°
2026-05-05 03:30 -16.33927 -173.40219 26857 ft 354 kts 40°
2026-05-05 03:31 -16.32259 -173.38336 26857 ft 354 kts 40°
2026-05-05 03:31 -16.30593 -173.36455 26857 ft 353 kts 40°
2026-05-05 03:31 -16.28926 -173.34574 26857 ft 353 kts 40°
2026-05-05 03:31 -16.27259 -173.32694 26857 ft 353 kts 40°
2026-05-05 03:32 -16.25591 -173.30813 26857 ft 353 kts 40°
2026-05-05 03:32 -16.23925 -173.28935 26846 ft 354 kts 40°
2026-05-05 03:32 -16.22255 -173.27053 26857 ft 354 kts 40°
2026-05-05 03:32 -16.20585 -173.25172 26860 ft 354 kts 40°
2026-05-05 03:33 -16.18914 -173.23289 26860 ft 354 kts 40°
2026-05-05 03:33 -16.17262 -173.21429 26860 ft 354 kts 40°
2026-05-05 03:33 -16.15591 -173.19547 26860 ft 355 kts 40°
2026-05-05 03:33 -16.13916 -173.17662 26860 ft 355 kts 40°
2026-05-05 03:34 -16.12241 -173.15777 26858 ft 355 kts 40°
2026-05-05 03:34 -16.10565 -173.13893 26858 ft 355 kts 41°
2026-05-05 03:34 -16.08889 -173.12008 26860 ft 355 kts 41°
2026-05-05 03:34 -16.07214 -173.10124 26860 ft 355 kts 41°
2026-05-05 03:35 -16.05536 -173.08238 26858 ft 355 kts 41°
2026-05-05 03:35 -16.03855 -173.06349 26859 ft 355 kts 41°
2026-05-05 03:35 -16.02173 -173.04459 26860 ft 355 kts 41°
2026-05-05 03:35 -16.00495 -173.02575 26860 ft 355 kts 41°
2026-05-05 03:36 -15.98815 -173.00688 26861 ft 355 kts 41°
2026-05-05 03:36 -15.97135 -172.98802 26862 ft 356 kts 41°
2026-05-05 03:36 -15.95456 -172.96918 26862 ft 356 kts 41°
2026-05-05 03:36 -15.93773 -172.95030 26862 ft 356 kts 40°
2026-05-05 03:37 -15.92093 -172.93145 26864 ft 356 kts 40°
2026-05-05 03:37 -15.90432 -172.91283 26862 ft 356 kts 40°
2026-05-05 03:37 -15.88751 -172.89398 26862 ft 356 kts 40°
2026-05-05 03:37 -15.87068 -172.87513 26849 ft 356 kts 41°
2026-05-05 03:38 -15.85386 -172.85629 26861 ft 355 kts 41°
2026-05-05 03:38 -15.83705 -172.83746 26863 ft 356 kts 41°
2026-05-05 03:38 -15.81947 -172.81959 26863 ft 352 kts 35°
2026-05-05 03:38 -15.80063 -172.80362 26865 ft 349 kts 31°
2026-05-05 03:39 -15.78096 -172.78892 26866 ft 348 kts 28°
2026-05-05 03:39 -15.76109 -172.77464 26864 ft 347 kts 28°
2026-05-05 03:39 -15.74117 -172.76051 26865 ft 347 kts 28°
2026-05-05 03:39 -15.72122 -172.74646 26865 ft 346 kts 28°
2026-05-05 03:40 -15.70127 -172.73246 26865 ft 346 kts 28°
2026-05-05 03:40 -15.68131 -172.71848 26865 ft 346 kts 28°
2026-05-05 03:40 -15.66135 -172.70451 26866 ft 346 kts 27°
2026-05-05 03:40 -15.64140 -172.69055 26865 ft 346 kts 27°
2026-05-05 03:41 -15.62143 -172.67659 26865 ft 346 kts 27°
2026-05-05 03:41 -15.60147 -172.66264 26865 ft 346 kts 27°
2026-05-05 03:41 -15.58149 -172.64868 26865 ft 346 kts 27°
2026-05-05 03:41 -15.56152 -172.63474 26868 ft 346 kts 27°
2026-05-05 03:42 -15.54155 -172.62079 26868 ft 347 kts 27°
2026-05-05 03:42 -15.52153 -172.60681 26863 ft 347 kts 27°
2026-05-05 03:42 -15.50150 -172.59284 26854 ft 347 kts 28°
2026-05-05 03:42 -15.48147 -172.57886 26866 ft 347 kts 28°
2026-05-05 03:43 -15.46142 -172.56488 26864 ft 347 kts 28°
2026-05-05 03:43 -15.44141 -172.55093 26865 ft 347 kts 28°
2026-05-05 03:43 -15.42136 -172.53695 26865 ft 347 kts 28°
2026-05-05 03:43 -15.40128 -172.52296 26865 ft 348 kts 28°
2026-05-05 03:44 -15.38150 -172.50917 26866 ft 348 kts 28°
2026-05-05 03:44 -15.36144 -172.49520 26865 ft 348 kts 28°
2026-05-05 03:44 -15.34136 -172.48122 26865 ft 348 kts 28°
2026-05-05 03:44 -15.32128 -172.46724 26865 ft 348 kts 28°
2026-05-05 03:45 -15.30119 -172.45325 26864 ft 348 kts 28°
2026-05-05 03:45 -15.28108 -172.43927 26865 ft 348 kts 28°
2026-05-05 03:45 -15.26100 -172.42530 26865 ft 348 kts 28°
2026-05-05 03:45 -15.24093 -172.41134 26862 ft 348 kts 28°
2026-05-05 03:46 -15.22084 -172.39737 26869 ft 348 kts 28°
2026-05-05 03:46 -15.20073 -172.38338 26864 ft 348 kts 28°
2026-05-05 03:46 -15.18061 -172.36940 26865 ft 348 kts 28°
2026-05-05 03:46 -15.16053 -172.35545 26865 ft 348 kts 28°
2026-05-05 03:47 -15.14044 -172.34149 26858 ft 348 kts 28°
2026-05-05 03:47 -15.12033 -172.32753 26867 ft 348 kts 28°
2026-05-05 03:47 -15.10026 -172.31360 26868 ft 348 kts 28°
2026-05-05 03:47 -15.08038 -172.29981 26867 ft 348 kts 28°
2026-05-05 03:48 -15.06026 -172.28585 26866 ft 348 kts 28°
2026-05-05 03:48 -15.04012 -172.27187 26863 ft 348 kts 28°
2026-05-05 03:48 -15.01999 -172.25791 26866 ft 349 kts 28°
2026-05-05 03:48 -14.99983 -172.24393 26866 ft 349 kts 28°
2026-05-05 03:49 -14.97970 -172.22998 26867 ft 349 kts 28°
2026-05-05 03:49 -14.95954 -172.21600 26866 ft 349 kts 28°
2026-05-05 03:49 -14.93939 -172.20204 26866 ft 349 kts 28°
2026-05-05 03:49 -14.91921 -172.18806 26866 ft 349 kts 28°
2026-05-05 03:50 -14.89904 -172.17408 26864 ft 349 kts 28°
2026-05-05 03:50 -14.87889 -172.16013 26866 ft 349 kts 28°
2026-05-05 03:50 -14.85875 -172.14619 26867 ft 349 kts 28°
2026-05-05 03:50 -14.83859 -172.13225 26876 ft 348 kts 28°
2026-05-05 03:51 -14.81842 -172.11829 26868 ft 349 kts 28°
2026-05-05 03:51 -14.79827 -172.10435 26866 ft 349 kts 28°
2026-05-05 03:51 -14.77815 -172.09044 26838 ft 341 kts 29°
2026-05-05 03:51 -14.75864 -172.07692 26286 ft 338 kts 28°
2026-05-05 03:52 -14.73903 -172.06338 25664 ft 339 kts 29°
2026-05-05 03:52 -14.71945 -172.04985 25100 ft 338 kts 29°
2026-05-05 03:52 -14.69995 -172.03637 24588 ft 336 kts 29°
2026-05-05 03:52 -14.68055 -172.02297 24131 ft 335 kts 29°
2026-05-05 03:53 -14.66150 -172.00981 23713 ft 332 kts 29°
2026-05-05 03:53 -14.64237 -171.99660 23271 ft 330 kts 29°
2026-05-05 03:53 -14.62336 -171.98347 22798 ft 327 kts 29°
2026-05-05 03:53 -14.60452 -171.97047 22344 ft 325 kts 29°
2026-05-05 03:54 -14.58584 -171.95758 21903 ft 322 kts 29°
2026-05-05 03:54 -14.56726 -171.94476 21476 ft 320 kts 29°
2026-05-05 03:54 -14.54881 -171.93204 21065 ft 318 kts 29°
2026-05-05 03:54 -14.53051 -171.91942 20660 ft 316 kts 29°
2026-05-05 03:55 -14.51228 -171.90685 20249 ft 314 kts 29°
2026-05-05 03:55 -14.49415 -171.89436 19868 ft 313 kts 29°
2026-05-05 03:55 -14.47611 -171.88192 19499 ft 311 kts 29°
2026-05-05 03:55 -14.45819 -171.86957 19143 ft 309 kts 29°
2026-05-05 03:56 -14.44034 -171.85728 18810 ft 308 kts 29°
2026-05-05 03:56 -14.42258 -171.84505 18477 ft 306 kts 29°
2026-05-05 03:56 -14.40491 -171.83288 18145 ft 304 kts 29°
2026-05-05 03:56 -14.38733 -171.82078 17796 ft 303 kts 29°
2026-05-05 03:57 -14.36990 -171.80878 17451 ft 301 kts 29°
2026-05-05 03:57 -14.35251 -171.79681 17124 ft 299 kts 29°
2026-05-05 03:57 -14.33550 -171.78511 16805 ft 297 kts 29°
2026-05-05 03:57 -14.31836 -171.77331 16500 ft 295 kts 29°
2026-05-05 03:58 -14.30133 -171.76160 16203 ft 294 kts 29°
2026-05-05 03:58 -14.28436 -171.74993 15919 ft 292 kts 29°
2026-05-05 03:58 -14.26749 -171.73833 15642 ft 291 kts 29°
2026-05-05 03:58 -14.25071 -171.72680 15376 ft 289 kts 29°
2026-05-05 03:59 -14.23400 -171.71531 15116 ft 288 kts 29°
2026-05-05 03:59 -14.21749 -171.70396 14783 ft 283 kts 29°
2026-05-05 03:59 -14.20125 -171.69279 14275 ft 279 kts 29°
2026-05-05 03:59 -14.18521 -171.68177 13642 ft 276 kts 30°
2026-05-05 04:00 -14.16937 -171.67088 12841 ft 272 kts 30°
2026-05-05 04:00 -14.15369 -171.66014 12020 ft 269 kts 28°
2026-05-05 04:00 -14.13707 -171.65224 11311 ft 257 kts 13°
2026-05-05 04:00 -14.11963 -171.64929 10498 ft 252 kts 359°
2026-05-05 04:01 -14.10226 -171.64890 9791 ft 246 kts 357°
2026-05-05 04:01 -14.08512 -171.64886 8891 ft 247 kts 357°
2026-05-05 04:01 -14.06798 -171.64893 8079 ft 245 kts 357°
2026-05-05 04:01 -14.05115 -171.64905 7410 ft 238 kts 358°
2026-05-05 04:02 -14.03462 -171.64921 6631 ft 237 kts 358°
2026-05-05 04:02 -14.01810 -171.64939 5832 ft 237 kts 358°
2026-05-05 04:02 -14.00173 -171.64958 5079 ft 234 kts 359°
2026-05-05 04:02 -13.98554 -171.64978 4347 ft 238 kts 359°
2026-05-05 04:03 -13.96892 -171.64999 4119 ft 239 kts 358°
2026-05-05 04:03 -13.95270 -171.65021 4093 ft 219 kts 359°
2026-05-05 04:03 -13.93826 -171.65038 4070 ft 200 kts 359°
2026-05-05 04:03 -13.92421 -171.65057 4092 ft 206 kts 358°
2026-05-05 04:04 -13.90982 -171.65079 4093 ft 207 kts 359°
2026-05-05 04:04 -13.89557 -171.65097 4161 ft 201 kts 358°
2026-05-05 04:04 -13.88175 -171.65117 3954 ft 195 kts 359°
2026-05-05 04:04 -13.86803 -171.65134 3469 ft 199 kts 359°
2026-05-05 04:05 -13.85405 -171.65152 3085 ft 200 kts 359°
2026-05-05 04:05 -13.84064 -171.65279 2986 ft 187 kts 344°
2026-05-05 04:05 -13.83020 -171.65957 2981 ft 174 kts 309°
2026-05-05 04:05 -13.82588 -171.67070 2983 ft 165 kts 280°
2026-05-05 04:06 -13.82510 -171.68214 2983 ft 156 kts 272°
2026-05-05 04:06 -13.82513 -171.68957 2987 ft 151 kts 270°
2026-05-05 04:06 -13.82539 -171.70000 2988 ft 149 kts 270°
2026-05-05 04:06 -13.82572 -171.71193 3021 ft 176 kts 269°
2026-05-05 04:07 -13.82607 -171.72501 3003 ft 189 kts 270°
2026-05-05 04:07 -13.82640 -171.73880 2992 ft 195 kts 270°
2026-05-05 04:07 -13.82670 -171.75276 2994 ft 196 kts 270°
2026-05-05 04:07 -13.82695 -171.76679 2989 ft 196 kts 270°
2026-05-05 04:08 -13.82718 -171.78081 2994 ft 196 kts 270°
2026-05-05 04:08 -13.82739 -171.79485 2991 ft 196 kts 270°
2026-05-05 04:08 -13.82759 -171.80887 2989 ft 196 kts 270°
2026-05-05 04:08 -13.82778 -171.82289 3001 ft 196 kts 270°
2026-05-05 04:09 -13.82790 -171.83711 2904 ft 205 kts 271°
2026-05-05 04:09 -13.82786 -171.85194 2610 ft 203 kts 272°
2026-05-05 04:09 -13.82726 -171.86602 2308 ft 192 kts 276°
2026-05-05 04:09 -13.82655 -171.87932 2036 ft 179 kts 274°
2026-05-05 04:10 -13.82570 -171.89166 1792 ft 166 kts 276°
2026-05-05 04:10 -13.82444 -171.90292 1593 ft 149 kts 280°
2026-05-05 04:10 -13.82285 -171.91295 1408 ft 142 kts 276°
2026-05-05 04:10 -13.82348 -171.92299 1332 ft 138 kts 261°
2026-05-05 04:11 -13.82465 -171.93287 1184 ft 140 kts 265°
2026-05-05 04:11 -13.82594 -171.94185 1124 ft 125 kts 265°
2026-05-05 04:11 -13.82682 -171.95087 975 ft 129 kts 265°
2026-05-05 04:11 -13.82770 -171.96017 801 ft 135 kts 262°
2026-05-05 04:12 -13.82942 -171.96929 618 ft 125 kts 264°
2026-05-05 04:12 -13.82966 -171.97823 371 ft 126 kts 270°
2026-05-05 04:12 -13.82975 -171.98746 178 ft 126 kts 270°
2026-05-05 04:12 -13.82985 -171.99642 1 ft 121 kts 270°
2026-05-05 04:13 -13.82994 -172.00335 -5 ft 50 kts 269°
2026-05-05 04:13 -13.82995 -172.00470 -2 ft 6 kts 270°
2026-05-05 04:13 -13.82997 -172.00532 -1 ft 9 kts 269°
2026-05-05 04:13 -13.82994 -172.00569 0 ft 3 kts 289°
2026-05-05 04:14 -13.82986 -172.00585 1 ft 4 kts 296°
2026-05-05 04:14 -13.82991 -172.00609 1 ft 0 kts 216°
2026-05-05 04:14 -13.83005 -172.00613 1 ft 1 kts 175°
2026-05-05 04:14 -13.83008 -172.00607 1 ft 2 kts 101°
2026-05-05 04:15 -13.83002 -172.00514 -1 ft 15 kts 85°
2026-05-05 04:15 -13.82997 -172.00436 -3 ft 11 kts 87°
2026-05-05 04:15 -13.82993 -172.00343 -5 ft 14 kts 85°
2026-05-05 04:15 -13.82996 -172.00257 -6 ft 8 kts 102°
2026-05-05 04:16 -13.82995 -172.00181 -7 ft 19 kts 87°
2026-05-05 04:16 -13.82987 -172.00046 -9 ft 18 kts 89°
2026-05-05 04:16 -13.82987 -171.99918 -12 ft 16 kts 91°
2026-05-05 04:16 -13.82988 -171.99815 -14 ft 13 kts 90°
2026-05-05 04:17 -13.82999 -171.99764 -15 ft 6 kts 115°
2026-05-05 04:17 -13.83044 -171.99738 -15 ft 6 kts 174°
2026-05-05 04:17 -13.83079 -171.99737 -14 ft 5 kts 178°
2026-05-05 04:17 -13.83128 -171.99744 -14 ft 9 kts 195°
2026-05-05 04:18 -13.83171 -171.99753 -14 ft 0 kts 199°
2026-05-05 04:18 -13.83174 -171.99757 -14 ft 1 kts 238°
2026-05-05 04:18 -13.83178 -171.99769 -14 ft 1 kts 263°
2026-05-05 04:18 -13.83178 -171.99779 -14 ft 0 kts 272°